Find Starlink 37828

NORAD ID: 100495 Int'l Des: 2026-196 Owner: SPXS Country: US Constellation: starlink operational

現在のビュー

3D地球を読み込み中...

About Starlink 37828

Starlink 37828 (NORAD 100495) is a starlink constellation satellite launched Aug 25, 2026 by SPXS of US. with a mass of 575.00 kg.

次回通過

Passes for default location (London). Set your location on the main map for personalized predictions.

高度履歴

Loading altitude history...

軌道要素

1 A0495U 26196Y 26254.43987230 .00128957 00000-0 67826-3 0 9991
2 A0495 53.1575 287.0590 0000919 85.1914 274.9214 15.79847681 3923
Epoch: Sep 11, 2026 • Age: 12 hours

現在のステータス

高度 343.9 km
遠地点 / 近地点 N/A
速度 7.70 km/s
衛星直下点 -39.53°S, 81.55°W
打ち上げ日 Aug 25, 2026
運用期間 17 days
タイプ internet

技術仕様

分類 Payload
質量 575.00 kg
乾燥質量 530.00 kg
総質量 575.00 kg
長さ 0.30 m
直径 4.10 m
スパン 29.00 m
形状 Box + pan
製造者 SPXS
バスタイプ Starlink V2MO
フェーズステータス In Orbit
所有者/国 SPXS/US

Most Searched